TimeEDT,TemperatureF,Dew PointF,Humidity,Sea Level PressureIn,VisibilityMPH,Wind Direction,Wind SpeedMPH,Gust SpeedMPH,PrecipitationIn,Events,Conditions,WindDirDegrees,DateUTC
12:15 AM,57.2,57.2,100,30.12,5.0,Calm,Calm,-,N/A,,Mostly Cloudy,0,2012-10-11 04:15:00
12:35 AM,57.2,57.2,100,30.12,5.0,Calm,Calm,-,N/A,,Mostly Cloudy,0,2012-10-11 04:35:00
12:55 AM,55.4,55.4,100,30.12,4.0,Calm,Calm,-,N/A,,Partly Cloudy,0,2012-10-11 04:55:00
1:15 AM,57.2,57.2,100,30.12,3.0,Calm,Calm,-,N/A,,Clear,0,2012-10-11 05:15:00
1:35 AM,57.2,57.2,100,30.13,3.0,Calm,Calm,-,N/A,,Clear,0,2012-10-11 05:35:00
1:55 AM,55.4,55.4,100,30.13,3.0,Calm,Calm,-,N/A,,Clear,0,2012-10-11 05:55:00
2:15 AM,55.4,55.4,100,30.14,6.0,Calm,Calm,-,N/A,,Clear,0,2012-10-11 06:15:00
2:35 AM,55.4,55.4,100,30.14,4.0,Calm,Calm,-,N/A,,Clear,0,2012-10-11 06:35:00
2:55 AM,55.4,55.4,100,30.14,5.0,NNW,3.5,-,N/A,,Clear,340,2012-10-11 06:55:00
3:15 AM,55.4,55.4,100,30.14,8.0,Calm,Calm,-,N/A,,Clear,0,2012-10-11 07:15:00
3:35 AM,55.4,55.4,100,30.14,7.0,North,3.5,-,N/A,,Clear,350,2012-10-11 07:35:00
3:55 AM,53.6,53.6,100,30.14,5.0,North,5.8,-,N/A,,Clear,350,2012-10-11 07:55:00
4:15 AM,55.4,53.6,94,30.15,10.0,North,8.1,-,N/A,,Clear,350,2012-10-11 08:15:00
4:35 AM,55.4,53.6,94,30.15,10.0,North,8.1,-,N/A,,Clear,350,2012-10-11 08:35:00
4:55 AM,55.4,53.6,94,30.16,10.0,North,9.2,-,N/A,,Clear,350,2012-10-11 08:55:00
5:15 AM,55.4,51.8,88,30.16,10.0,North,9.2,-,N/A,,Clear,350,2012-10-11 09:15:00
5:35 AM,55.4,51.8,88,30.17,10.0,North,10.4,-,N/A,,Clear,350,2012-10-11 09:35:00
5:50 AM,55.4,51.8,88,30.18,10.0,North,10.4,-,N/A,,Clear,360,2012-10-11 09:50:00
5:55 AM,55.4,51.8,88,30.18,10.0,North,10.4,-,N/A,,Clear,350,2012-10-11 09:55:00
7:50 AM,55.4,48.2,77,30.22,10.0,NNE,12.7,-,N/A,,Clear,30,2012-10-11 11:50:00
8:45 AM,55.4,48.2,77,30.23,10.0,NE,13.8,-,N/A,,Clear,40,2012-10-11 12:45:00
9:45 AM,60.8,46.4,59,30.26,10.0,NNE,17.3,-,N/A,,Clear,30,2012-10-11 13:45:00
10:45 AM,64.4,50.0,59,30.28,10.0,NNE,17.3,-,N/A,,Clear,30,2012-10-11 14:45:00
11:45 AM,66.2,50.0,56,30.28,10.0,NE,13.8,-,N/A,,Clear,40,2012-10-11 15:45:00
12:55 PM,69.8,48.2,46,30.27,10.0,North,9.2,-,N/A,,Clear,10,2012-10-11 16:55:00
1:50 PM,69.8,50.0,49,30.25,10.0,East,6.9,-,N/A,,Clear,100,2012-10-11 17:50:00
2:48 PM,69.8,48.2,46,30.24,10.0,ESE,11.5,-,N/A,,Clear,110,2012-10-11 18:48:00
3:45 PM,69.8,50.0,49,30.24,10.0,SE,10.4,-,N/A,,Clear,140,2012-10-11 19:45:00
4:45 PM,69.8,51.8,53,30.23,10.0,SSE,10.4,-,N/A,,Clear,150,2012-10-11 20:45:00
5:50 PM,68.0,51.8,56,30.23,10.0,ESE,8.1,-,N/A,,Clear,120,2012-10-11 21:50:00
6:45 PM,66.2,51.8,60,30.02,10.0,East,5.8,-,N/A,,Clear,90,2012-10-11 22:45:00
7:45 PM,57.2,53.6,88,30.23,10.0,Calm,Calm,-,N/A,,Clear,0,2012-10-11 23:45:00
9:45 PM,53.6,53.6,100,30.25,10.0,Calm,Calm,-,N/A,,Clear,0,2012-10-12 01:45:00
10:55 PM,53.6,51.8,94,30.25,10.0,Calm,Calm,-,N/A,,Clear,0,2012-10-12 02:55:00
11:15 PM,51.8,51.8,100,30.24,9.0,Calm,Calm,-,N/A,,Clear,0,2012-10-12 03:15:00
11:35 PM,51.8,50.0,94,30.24,10.0,Calm,Calm,-,N/A,,Clear,0,2012-10-12 03:35:00
11:55 PM,53.6,51.8,94,30.24,10.0,Calm,Calm,-,N/A,,Clear,0,2012-10-12 03:55:00